Weather History for KBBB - November, 2013

Change the Weather History Date:

Sunday, November 10, 2013

  Actual Average Record
Temperature  
Mean Temperature 28 °F -  
Max Temperature 35 °F 38 °F 70 °F (1954)
Min Temperature 21 °F 23 °F 3 °F (1966)
Degree Days  
Heating Degree Days 37    
Moisture  
Dew Point 26 °F    
Average Humidity 80    
Maximum Humidity 100    
Minimum Humidity 70    
Precipitation  
Precipitation 0.00 in - - ()
Sea Level Pressure  
Sea Level Pressure 30.23 in    
Wind  
Wind Speed 9 mph (West)    
Max Wind Speed 16 mph    
Max Gust Speed 28 mph    
Visibility 10 miles    
Events Snow    
Averages and records for this station are not official NWS values.
T = Trace of Precipitation, MM = Missing Value Source: NWS Daily Summary

Daily Weather History Graph

Daily Weather History Graph

Search for Another Location

Airport or City:

Trip Planner

Search our weather history database for the weather conditions in past years. The results will help you decide how hot, cold, wet, or windy it might be!

Date:

Astronomy

Nov. 10, 2013 Rise Set
Actual Time 7:14 AM CST 4:57 PM CST
Civil Twilight 6:43 AM CST 5:29 PM CST
Nautical Twilight 6:07 AM CST 6:04 PM CST
Astronomical Twilight 5:32 AM CST 6:39 PM CST
Moon 1:22 PM CST (11/10) No Moon Set
Length of Visible Light 10h 46m
Length of Day
9h 43m
First Quarter, 56% of the Moon is Illuminated
Nov 10
First Quarter
Nov 17
Full
Nov 25
Last Quarter
Dec 2
New
Dec 9
First Quarter

Hourly Weather History & Observations

Time (CST) Temp. Windchill Dew Point Humidity Pressure Visibility Wind Dir Wind Speed Gust Speed Precip Events Conditions
12:13 AM 35.6 °F 25.9 °F 26.6 °F 70% 30.28 in 10.0 mi North 16.1 mph 27.6 mph N/A   Overcast
12:32 AM 35.6 °F 25.9 °F 26.6 °F 70% 30.29 in 10.0 mi North 16.1 mph 21.9 mph N/A   Overcast
12:53 AM 35.6 °F 26.6 °F 26.6 °F 70% 30.29 in 10.0 mi North 13.8 mph 17.3 mph N/A   Overcast
1:13 AM 33.8 °F 26.4 °F 26.6 °F 75% 30.29 in 10.0 mi North 9.2 mph - N/A   Overcast
1:32 AM 30.2 °F 22.6 °F 24.8 °F 80% 30.30 in 10.0 mi North 8.1 mph - N/A   Scattered Clouds
1:53 AM 28.4 °F 19.7 °F 23.0 °F 80% 30.29 in 10.0 mi NNW 9.2 mph - N/A   Clear
2:13 AM 26.6 °F 20.0 °F 23.0 °F 86% 30.30 in 10.0 mi NNW 5.8 mph - N/A   Clear
2:32 AM 26.6 °F 18.2 °F 23.0 °F 86% 30.30 in 10.0 mi NNW 8.1 mph - N/A   Clear
2:53 AM 24.8 °F 16.9 °F 21.2 °F 86% 30.31 in 10.0 mi NW 6.9 mph - N/A   Clear
3:13 AM 24.8 °F 16.1 °F 21.2 °F 86% 30.30 in 10.0 mi NW 8.1 mph - N/A   Clear
3:32 AM 24.8 °F 16.1 °F 21.2 °F 86% 30.31 in 10.0 mi WNW 8.1 mph - N/A   Clear
3:53 AM 23.0 °F 13.9 °F 19.4 °F 86% 30.32 in 10.0 mi WNW 8.1 mph - N/A   Clear
4:13 AM 21.2 °F 12.6 °F 19.4 °F 93% 30.32 in 10.0 mi NW 6.9 mph - N/A   Clear
4:32 AM 23.0 °F 17.0 °F 21.2 °F 93% 30.31 in 10.0 mi North 4.6 mph - N/A   Clear
4:53 AM 23.0 °F 18.4 °F 21.2 °F 93% 30.31 in 10.0 mi NNW 3.5 mph - N/A   Clear
5:12 AM 21.2 °F 16.4 °F 21.2 °F 100% 30.31 in 10.0 mi WNW 3.5 mph - N/A   Clear
5:33 AM 21.2 °F 16.4 °F 19.4 °F 93% 30.32 in 10.0 mi West 3.5 mph - N/A   Clear
5:53 AM 21.2 °F - 19.4 °F 93% 30.31 in 10.0 mi Calm Calm - N/A   Clear
6:12 AM 21.2 °F 16.4 °F 19.4 °F 93% 30.32 in 10.0 mi West 3.5 mph - N/A   Clear
6:33 AM 21.2 °F 16.4 °F 21.2 °F 100% 30.32 in 10.0 mi SW 3.5 mph - N/A   Clear
6:53 AM 23.0 °F 18.4 °F 21.2 °F 93% 30.31 in 10.0 mi SSW 3.5 mph - N/A   Clear
7:12 AM 24.8 °F 20.5 °F 21.2 °F 86% 30.30 in 10.0 mi WSW 3.5 mph - N/A   Clear
7:33 AM 24.8 °F 20.5 °F 23.0 °F 93% 30.31 in 10.0 mi SW 3.5 mph - N/A   Clear
7:53 AM 24.8 °F 19.1 °F 23.0 °F 93% 30.32 in 10.0 mi WSW 4.6 mph - N/A   Clear
8:12 AM 26.6 °F 22.6 °F 23.0 °F 86% 30.31 in 10.0 mi WSW 3.5 mph - N/A   Clear
8:33 AM 26.6 °F 21.2 °F 24.8 °F 93% 30.30 in 10.0 mi WSW 4.6 mph - N/A   Clear
8:52 AM 26.6 °F 20.0 °F 24.8 °F 93% 30.30 in 10.0 mi WSW 5.8 mph - N/A   Clear
9:13 AM 28.4 °F 23.3 °F 24.8 °F 86% 30.30 in 10.0 mi West 4.6 mph - N/A   Clear
9:33 AM 30.2 °F 24.3 °F 26.6 °F 86% 30.30 in 10.0 mi WSW 5.8 mph - N/A   Clear
9:52 AM 30.2 °F 22.6 °F 26.6 °F 86% 30.30 in 10.0 mi West 8.1 mph - N/A   Clear
10:13 AM 33.8 °F 26.4 °F 26.6 °F 75% 30.30 in 10.0 mi WSW 9.2 mph - N/A   Clear
10:33 AM 35.6 °F 28.0 °F 26.6 °F 70% 30.29 in 10.0 mi WSW 10.4 mph - N/A   Clear
10:52 AM 35.6 °F 29.2 °F 26.6 °F 70% 30.29 in 10.0 mi WSW 8.1 mph - N/A   Scattered Clouds
11:13 AM 35.6 °F 27.5 °F 26.6 °F 70% 30.28 in 10.0 mi WSW 11.5 mph - N/A   Mostly Cloudy
11:33 AM 35.6 °F 28.6 °F 26.6 °F 70% 30.27 in 10.0 mi SW 9.2 mph - N/A   Overcast
11:52 AM 35.6 °F 26.6 °F 26.6 °F 70% 30.26 in 10.0 mi WSW 13.8 mph - N/A   Mostly Cloudy
12:13 PM 35.6 °F 28.6 °F 26.6 °F 70% 30.26 in 10.0 mi WSW 9.2 mph - N/A   Overcast
12:33 PM 35.6 °F 28.6 °F 26.6 °F 70% 30.24 in 10.0 mi SW 9.2 mph - N/A   Overcast
12:52 PM 35.6 °F 29.9 °F 26.6 °F 70% 30.23 in 10.0 mi WSW 6.9 mph - N/A   Overcast
1:13 PM 35.6 °F 29.2 °F 26.6 °F 70% 30.22 in 10.0 mi SW 8.1 mph - N/A   Overcast
1:32 PM 35.6 °F 29.2 °F 26.6 °F 70% 30.21 in 10.0 mi SW 8.1 mph - N/A   Overcast
1:52 PM 35.6 °F 29.2 °F 26.6 °F 70% 30.20 in 10.0 mi SW 8.1 mph - N/A   Overcast
2:12 PM 35.6 °F 28.0 °F 26.6 °F 70% 30.19 in 10.0 mi SSW 10.4 mph - N/A   Overcast
2:32 PM 35.6 °F 28.0 °F 26.6 °F 70% 30.18 in 10.0 mi SW 10.4 mph - N/A   Overcast
2:53 PM 35.6 °F 28.0 °F 26.6 °F 70% 30.16 in 10.0 mi SSW 10.4 mph - N/A   Overcast
3:13 PM 35.6 °F 29.2 °F 26.6 °F 70% 30.15 in 10.0 mi SSW 8.1 mph - N/A   Overcast
3:32 PM 35.6 °F 29.2 °F 28.4 °F 75% 30.15 in 10.0 mi SSW 8.1 mph - N/A   Overcast
3:53 PM 35.6 °F 29.2 °F 28.4 °F 75% 30.14 in 10.0 mi South 8.1 mph - N/A   Overcast
4:12 PM 35.6 °F 27.5 °F 26.6 °F 70% 30.12 in 10.0 mi SSW 11.5 mph - N/A   Overcast
4:32 PM 35.6 °F 28.0 °F 28.4 °F 75% 30.12 in 10.0 mi SSW 10.4 mph - N/A   Overcast
4:53 PM 35.6 °F 29.9 °F 28.4 °F 75% 30.14 in 10.0 mi SSW 6.9 mph - N/A   Overcast
5:12 PM 35.6 °F 30.7 °F 28.4 °F 75% 30.14 in 10.0 mi SW 5.8 mph - N/A   Overcast
5:32 PM 35.6 °F 31.7 °F 28.4 °F 75% 30.13 in 10.0 mi SSW 4.6 mph - N/A   Overcast
5:53 PM 35.6 °F 31.7 °F 28.4 °F 75% 30.13 in 10.0 mi SSW 4.6 mph - N/A   Overcast
6:12 PM 35.6 °F 30.7 °F 28.4 °F 75% 30.12 in 10.0 mi SSW 5.8 mph - N/A   Overcast
6:32 PM 35.6 °F 30.7 °F 28.4 °F 75% 30.12 in 10.0 mi SSW 5.8 mph - N/A   Overcast
6:53 PM 35.6 °F 30.7 °F 28.4 °F 75% 30.11 in 10.0 mi SSW 5.8 mph - N/A   Mostly Cloudy
7:13 PM 35.6 °F 31.7 °F 28.4 °F 75% 30.11 in 10.0 mi SSW 4.6 mph - N/A   Scattered Clouds
7:32 PM 33.8 °F 29.6 °F 28.4 °F 81% 30.10 in 10.0 mi South 4.6 mph - N/A   Scattered Clouds
7:53 PM 33.8 °F - 28.4 °F 81% 30.12 in 10.0 mi Calm Calm - N/A   Scattered Clouds
8:12 PM 33.8 °F - 28.4 °F 81% 30.11 in 10.0 mi Calm Calm - N/A   Scattered Clouds
8:33 PM 33.8 °F - 28.4 °F 81% 30.10 in 10.0 mi Calm Calm - N/A   Mostly Cloudy
8:52 PM 32.0 °F 28.7 °F 28.4 °F 87% 30.11 in 10.0 mi NE 3.5 mph - N/A   Overcast
9:12 PM 33.8 °F 26.4 °F 28.4 °F 81% 30.14 in 10.0 mi NNE 9.2 mph 16.1 mph N/A   Overcast
9:33 PM 33.8 °F 29.6 °F 28.4 °F 81% 30.14 in 10.0 mi NNE 4.6 mph - N/A   Overcast
9:52 PM 33.8 °F 28.6 °F 28.4 °F 81% 30.14 in 10.0 mi North 5.8 mph - N/A   Overcast
10:12 PM 33.8 °F 28.6 °F 28.4 °F 81% 30.14 in 10.0 mi North 5.8 mph - N/A   Overcast
10:33 PM 33.8 °F 25.3 °F 28.4 °F 81% 30.16 in 10.0 mi North 11.5 mph - N/A   Overcast
10:52 PM 33.8 °F 24.3 °F 28.4 °F 81% 30.17 in 10.0 mi North 13.8 mph 18.4 mph N/A Snow Light Snow
11:12 PM 33.8 °F 23.5 °F 28.4 °F 81% 30.17 in 10.0 mi NNE 16.1 mph 23.0 mph N/A Snow Light Snow
11:33 PM 32.0 °F 21.2 °F 26.6 °F 80% 30.19 in 10.0 mi NNE 16.1 mph 25.3 mph N/A Snow Light Snow
11:52 PM 30.2 °F 18.9 °F 24.8 °F 80% 30.21 in 10.0 mi North 16.1 mph 27.6 mph N/A Snow Light Snow